This is the latest recevied weather packets stored in our database for station/object SQ5LTL-2. If no packets are shown the sender has not sent any weather packets the latest 1 day(s).
| Time | Temp. | Humidity | Pressure | Rain* | Wind** | Luminosity | Snow |
|---|---|---|---|---|---|---|---|
| 1778069122 | 26.11° C | 40% | 1006.8 hPa | 0 mm | - | 434 W/m² | - |
| 1778068821 | 26.11° C | 40% | 1006.7 hPa | 0 mm | - | 557 W/m² | - |
| 1778068519 | 25.56° C | 41% | 1006.5 hPa | 0 mm | - | 388 W/m² | - |
| 1778067333 | 25.56° C | 39% | 1006.6 hPa | 0 mm | - | 340 W/m² | - |
| 1778066429 | 25.56° C | 37% | 1006.6 hPa | 0 mm | - | 549 W/m² | - |
| 1778066127 | 26.11° C | 37% | 1006.6 hPa | 0 mm | - | 582 W/m² | - |
| 1778065826 | 25.56° C | 37% | 1006.5 hPa | 0 mm | - | 616 W/m² | - |
| 1778065223 | 25.56° C | 37% | 1006.5 hPa | 0 mm | - | 587 W/m² | - |
| 1778064318 | 25° C | 38% | 1006.5 hPa | 0 mm | - | 589 W/m² | - |
| 1778064017 | 25° C | 38% | 1006.7 hPa | 0 mm | - | 339 W/m² | - |
| 1778063434 | 25° C | 37% | 1006.7 hPa | 0 mm | - | 510 W/m² | - |
| 1778062831 | 25° C | 37% | 1006.7 hPa | 0 mm | - | 547 W/m² | - |
| 1778061626 | 24.44° C | 37% | 1006.9 hPa | 0 mm | - | 578 W/m² | - |
| 1778061324 | 25° C | 36% | 1006.9 hPa | 0 mm | - | 576 W/m² | - |
| 1778060720 | 25° C | 36% | 1006.8 hPa | 0 mm | - | 575 W/m² | - |
| 1778058932 | 23.89° C | 38% | 1006.8 hPa | 0 mm | - | 521 W/m² | - |
| 1778058630 | 23.89° C | 38% | 1006.6 hPa | 0 mm | - | 436 W/m² | - |
| 1778058027 | 23.33° C | 39% | 1006.8 hPa | 0 mm | - | 413 W/m² | - |
| 1778057726 | 23.89° C | 39% | 1006.7 hPa | 0 mm | - | 375 W/m² | - |
| 1778056520 | 23.33° C | 40% | 1006.6 hPa | 0 mm | - | 508 W/m² | - |
| 1778056219 | 23.33° C | 40% | 1006.8 hPa | 0 mm | - | 506 W/m² | - |
| 1778055917 | 22.78° C | 40% | 1006.8 hPa | 0 mm | - | 496 W/m² | - |
| 1778055615 | 22.78° C | 40% | 1006.8 hPa | 0 mm | - | 461 W/m² | - |
| 1778054731 | 22.22° C | 40% | 1006.9 hPa | 0 mm | - | 451 W/m² | - |
| 1778054430 | 22.22° C | 40% | 1006.8 hPa | 0 mm | - | 446 W/m² | - |
* Rain latest hour (hover to see other rain measurements)
** Current wind speed in m/s (hover to see current wind gust speed)